Weather History for Somerville, NJ

Change the Weather History Date:

Friday, November 1, 2013

  Actual Average Record
Temperature  
Mean Temperature 59 °F -  
Max Temperature 70 °F 58 °F 84 °F (1950)
Min Temperature 48 °F 37 °F 23 °F (1954)
Degree Days  
Heating Degree Days 6    
Growing Degree Days 9 (Base 50)    
Moisture  
Dew Point 56 °F    
Average Humidity 82    
Maximum Humidity 100    
Minimum Humidity 53    
Precipitation  
Precipitation 0.19 in - - ()
Sea Level Pressure  
Sea Level Pressure 29.64 in    
Wind  
Wind Speed 5 mph (SSW)    
Max Wind Speed 12 mph    
Max Gust Speed 37 mph    
Visibility 8 miles    
Events Rain    
Averages and records for this station are not official NWS values.
T = Trace of Precipitation, MM = Missing Value Source: NWS Daily Summary

Daily Weather History Graph

Daily Weather History Graph

Search for Another Location

Airport:

Trip Planner

Search our weather history database for the weather conditions in past years. The results will help you decide how hot, cold, wet, or windy it might be!

Date:

Astronomy

Nov. 01, 2013 Rise Set
Actual Time 7:29 AM EDT 5:54 PM EDT
Civil Twilight 7:00 AM EDT 6:23 PM EDT
Nautical Twilight 6:28 AM EDT 6:55 PM EDT
Astronomical Twilight 5:56 AM EDT 7:27 PM EDT
Moon 5:18 AM EDT (11/1) 4:46 PM EDT (11/1)
Length of Visible Light 11h 22m
Length of Day
10h 25m
Waning Crescent, 4% of the Moon is Illuminated
Nov 1
Waning Crescent
Nov 3
New
Nov 10
First Quarter
Nov 17
Full
Nov 25
Last Quarter

Hourly Weather History & Observations

Time (EDT) Temp. Dew Point Humidity Pressure Visibility Wind Dir Wind Speed Gust Speed Precip Events Conditions
12:02 AM 62.6 °F 59.0 °F 88% 29.79 in 10.0 mi South 3.5 mph - 0.00 in Rain Light Rain
12:39 AM 60.8 °F 59.0 °F 94% 29.76 in 8.0 mi SSE 4.6 mph - 0.00 in   Overcast
12:53 AM 62.1 °F 60.1 °F 93% 29.76 in 8.0 mi SSE 4.6 mph - 0.00 in   Overcast
1:22 AM 62.6 °F 60.8 °F 94% 29.74 in 6.0 mi SE 3.5 mph - N/A   Overcast
1:48 AM 60.8 °F 60.8 °F 100% 29.72 in 5.0 mi Calm Calm - N/A   Scattered Clouds
1:53 AM 61.0 °F 60.1 °F 97% 29.72 in 5.0 mi Calm Calm - N/A   Scattered Clouds
2:53 AM 64.0 °F 60.1 °F 87% 29.69 in 10.0 mi Variable 3.5 mph - N/A   Partly Cloudy
8:53 AM 69.1 °F 62.1 °F 78% 29.55 in 10.0 mi South 11.5 mph 23.0 mph 0.00 in Rain Light Rain
9:24 AM 66.2 °F 62.6 °F 88% 29.62 in 1.0 mi WSW 10.4 mph 36.8 mph 0.15 in Rain Heavy Rain
9:27 AM 62.6 °F 59.0 °F 88% 29.61 in 0.8 mi SW 8.1 mph 36.8 mph 0.17 in Rain Heavy Rain
9:34 AM 62.6 °F 57.2 °F 82% 29.61 in 2.0 mi Variable 4.6 mph - 0.18 in Rain Light Rain
9:42 AM 62.6 °F 57.2 °F 82% 29.61 in 10.0 mi WSW 10.4 mph 17.3 mph 0.18 in Rain Light Rain
9:53 AM 62.1 °F 57.9 °F 86% 29.62 in 10.0 mi Variable 4.6 mph - 0.18 in Rain Light Rain
10:53 AM 63.0 °F 57.0 °F 81% 29.60 in 10.0 mi Variable 3.5 mph - 0.00 in   Overcast
11:53 AM 63.0 °F 57.9 °F 84% 29.60 in 10.0 mi Variable 3.5 mph - 0.00 in Rain Light Rain
12:53 PM 64.9 °F 57.0 °F 75% 29.58 in 10.0 mi SSW 8.1 mph - 0.01 in   Overcast
1:53 PM 68.0 °F 52.0 °F 56% 29.57 in 10.0 mi Variable 6.9 mph 17.3 mph N/A   Mostly Cloudy
2:53 PM 70.0 °F 52.0 °F 53% 29.57 in 10.0 mi SW 11.5 mph 23.0 mph N/A   Mostly Cloudy
3:53 PM 69.1 °F 51.1 °F 53% 29.57 in 10.0 mi Variable 6.9 mph - N/A   Partly Cloudy
4:53 PM 69.1 °F 53.1 °F 57% 29.56 in 10.0 mi Variable 4.6 mph - N/A   Clear
5:53 PM 66.0 °F 53.1 °F 63% 29.58 in 10.0 mi Variable 4.6 mph - N/A   Clear
6:53 PM 57.9 °F 52.0 °F 81% 29.61 in 10.0 mi South 3.5 mph - N/A   Clear
7:53 PM 55.9 °F 52.0 °F 87% 29.63 in 10.0 mi South 4.6 mph - N/A   Clear
8:53 PM 53.1 °F 51.1 °F 93% 29.65 in 10.0 mi Calm Calm - N/A   Clear
9:53 PM 51.1 °F 50.0 °F 96% 29.66 in 10.0 mi NW 3.5 mph - N/A   Clear
10:53 PM 48.9 °F 46.9 °F 93% 29.69 in 4.0 mi Calm Calm - N/A   Clear
11:53 PM 48.0 °F 46.0 °F 93% 29.67 in 4.0 mi Calm Calm - N/A   Clear